Location: ????
(30.2663°N, 31.2484°E)
Time: 16:13:45
(UTC+00:00)

CZ-2C R/B - Pass Details

Date: 01 April 2023
Orbit: 784 x 869 km, 98.3° (Epoch: 04 June)

Event Time Altitude Azimuth Distance (km) Brightness Sun altitude
Exits shadow 00:21:01 13° 97° (E) 2,279 5.3 -41.5°
Maximum altitude 00:23:27 17° 67° (ENE) 2,032 5.2 -41.1°
Drops below altitude 10° 00:26:55 10° 28° (NNE) 2,490 5.7 -40.5°
Sets 00:30:04 0° 10° (N) 3,416 6.4 -40.0°
